Regional Weather Roundup
Issued by NWS

Home | Current Version | Previous Version | Graphics & Text | Print | Product List | Glossary On
Versions: 1 2 3 4 5 6 7 8 9 10 11 12 13 14 15 16 17 18 19 20 21 22 23 24 25 26 27
000
ASUS45 KBOU 221010
RWRCO

WEATHER ROUNDUP FOR COLORADO
NATIONAL WEATHER SERVICE DENVER/BOULDER CO
300 AM MST MON JAN 22 2018

NOTE: "FAIR" INDICATES FEW OR NO CLOUDS BELOW 12000 FEET WITH NO
SIGNIFICANT WEATHER AND/OR OBSTRUCTIONS TO VISIBILITY.

COZ001>005-013-030-031-221100-
...NORTHWEST COLORADO...

CITY           SKY/WX    TMP DP  RH WIND       PRES   REMARKS
CRAIG          FAIR      -2  -5  87 CALM      30.20R
HAYDEN         FLURRIES N/A N/A N/A CALM      30.18R
MEEKER         FOG       -8 -12  83 CALM      30.20R VSB 1
RABBIT EARS PA SNOW       3   0  85 W13G29    29.95S VSB 1/2 WCI -14
STEAMBOAT SPGS CLOUDY    13  10  90 CALM      30.15R
WALDEN         FAIR       1  -4  78 SE6       30.05R WCI -10
$$

COZ006>008-011-221100-
...WEST CENTRAL VALLEYS...

CITY           SKY/WX    TMP DP  RH WIND       PRES   REMARKS
GRAND JUNCTION FAIR      13   9  84 E7        30.24R WCI   3
MONTROSE       FAIR      14   9  80 SE7       30.25R WCI   4
EAGLE          FAIR       5   2  87 SE3       30.20R
RIFLE          FAIR      19  10  68 CALM      30.23R
DELTA          FAIR      20  13  74 NE5       30.25R WCI  13
NUCLA          FAIR      14   7  73 E14       30.25S WCI  -1
$$

COZ017>023-064>068-221100-
...SOUTHWEST COLORADO...

CITY           SKY/WX    TMP DP  RH WIND       PRES   REMARKS
DURANGO        FAIR      19   6  57 VRB7      30.07S WCI  10
CORTEZ         FAIR       6   3  87 NE8       30.18S WCI  -7
PAGOSA SPRINGS MOCLDY   N/A N/A N/A CALM      30.07R FOG
TELLURIDE      MOCLDY     8   5  86 CALM      30.12R
WOLF CREEK PAS FAIR       3  -8  60 NW7G24    29.97R WCI  -9
$$

COZ009-010-012-014-032>034-037-058>063-221100-
...CENTRAL COLORADO...

CITY           SKY/WX    TMP DP  RH WIND       PRES   REMARKS
ASPEN          CLOUDY    12   7  80 S6        30.10S WCI   3
BUENA VISTA    FAIR      15   2  57 NW25G32   29.99S WCI  -4
COPPER MTN     NOT AVBL
BERTHOUD PASS  HVY SNOW  -6 -17  59 N9G29     29.84R VSB 1/4 WCI -22
COTTONWOOD PAS   N/A     14   3  62 NW12G26   29.91R WCI   0
GUNNISON       FAIR       7   0  73 NW7       30.11R WCI  -5
KREMMLING      MOCLDY     5   1  85 CALM      30.12R
LEADVILLE      CLOUDY     3  -2  79 NW13      29.97R WCI -14
MONARCH PASS   CLOUDY    -2  -6  84 SW21G32   29.99R WCI -25
SALIDA         FAIR      16   4  60 NW7       30.09R WCI   6
SUNLIGHT       LGT SNOW N/A N/A N/A MISG      30.05S VSB 1
WILKERSON PASS FAIR       1  -6  71 N18G33    29.84R WCI -19
$$

COZ069>075-221100-
...SAN LUIS VALLEY/SANGRE DE CRISTO MOUNTAINS...

CITY           SKY/WX    TMP DP  RH WIND       PRES   REMARKS
ALAMOSA        FAIR       9   0  67 CALM      30.03R
DEL NORTE      FAIR      17  -1  45 W12G17    30.02S WCI   4
LA VETA PASS   MOCLDY     5   1  85 S23G33      N/A  WCI -17
SAGUACHE       FAIR      18   3  53 N18G25    30.03R WCI   2
$$

COZ035-036-038>040-221100-
...NORTHERN COLORADO FRONT RANGE...

CITY           SKY/WX    TMP DP  RH WIND       PRES   REMARKS
DENVER INTL AP MOCLDY    22  12  65 W3        29.96R
DMNS CITY PARK NOT AVBL
AURORA         MOCLDY    21  14  73 CALM      29.95S
FRONT RANGE AP FAIR      22  14  72 W10       29.95S WCI  11
ERIE MUNI ARPT FAIR      13   7  78 CALM      30.02R
BOULDER MUN AP FAIR      19  14  79 CALM      29.96R
CENTENNIAL     FAIR      23   9  55 NW12      29.94S WCI  12
BROOMFIELD     FAIR      27   9  46 W20G25    29.95R WCI  13
FORT COLLINS   FAIR      20  12  71 NE7       29.97R WCI  11
LONGMONT       FAIR      17  12  80 W3        29.99R
$$

COZ041-046-047-076>085-087-088-221100-
...PIKES PEAK/PALMER DIVIDE AND SOUTHERN FOOTHILLS...

CITY           SKY/WX    TMP DP  RH WIND       PRES   REMARKS
COLO. SPRINGS  FAIR      17  10  74 NW6       29.93S WCI   9
A. F. ACADEMY  FAIR      11   5  76 N10       29.91R WCI  -2
SCHRIEVER AFB  FAIR      19  10  70 NW14      29.93S WCI   5
CHEYENNE MTN   FAIR      18   8  63 CALM      29.85S
ELLICOTT         N/A    N/A N/A N/A NW9         N/A
FALCON         FAIR      16   8  68 W12       29.91S WCI   3
FORT CARSON    FAIR      20   8  58 SW3       29.92F
LIMON          CLOUDY    21  14  74 N25G36    29.90R WCI   4
MONUMENT HILL  FAIR      12   9  85 NW15      29.91S WCI  -4
CANON CITY     CLEAR     19   9  63 W12       29.98R WCI   7
WALSENBURG     FAIR      21  12  68 W20G26    29.96S WCI   6
TRINIDAD       FAIR      15  12  88 W8        29.96S WCI   4
$$

COZ042>045-048>051-090-091-221100-
...NORTHEAST COLORADO...

CITY           SKY/WX    TMP DP  RH WIND       PRES   REMARKS
GREELEY ARPT   FAIR      20  11  68 N16       29.98R WCI   6
AKRON          CLOUDY    23  16  74 N25G37    29.91R WCI   7
BURLINGTON     FOG       26  24  92 NW33G52   29.82R VSB 3/4 WCI   9
WRAY           CLOUDY    28  28 100 NW30G37   29.87R WCI  13
YUMA           LGT SNOW  25  23  93 NW25G37   29.90R WCI   9
STERLING       CLOUDY    27  19  74 N18       29.94R WCI  13
HOLYOKE        CLOUDY    30  27  86 NW28G35   29.89R WCI  16
FORT MORGAN    FAIR      25  13  62 NW28G35   29.96R WCI   8
$$

COZ086-089-092>099-221100-
...SOUTHEAST COLORADO...

CITY           SKY/WX    TMP DP  RH WIND       PRES   REMARKS
PUEBLO         MOCLDY    16  11  80 W5        29.98S WCI   9
LA JUNTA       FAIR      26  16  65 NW16      29.97R WCI  14
LAMAR          MOCLDY    26  18  71 NW21      29.90R WCI  12
SPRINGFIELD      N/A     24  18  77 NW30G39   29.86R WCI   7
$$




USA.gov is the U.S. government's official web portal to all federal, state and local government web resources and services.